User: anonymous   Login
Location: Vallejo Observatory
(38.1221°N, 122.2109°W)
Time: 22:30:39
(UTC-08:00)
Language:

MOS 1 Rocket - Orbit

View from above orbital plane
View from above orbital plane
View from above satellite
View from above satellite

Ground track
Ground track

The orbit data is extracted from the following two-line orbital elements,

1 17528U 87018B   16041.54628921  .00000459  00000-0  10961-3 0  9994
2 17528  97.4026  50.3370 0153958  42.5998  66.8587 14.50590172528457
Epoch (UTC): 10 February 2016 13:06:39
Eccentricity: 0.0153958
inclination: 97.4026°
perigee height: 614 km
apogee height: 833 km
right ascension of ascending node: 50.3370°
argument of perigee: 42.5998°
revolutions per day: 14.50590172
mean anomaly at epoch: 66.8587°
orbit number at epoch: 52845

The dashed part of the orbit path shows where the satellite is in the earth's shadow,  

DLR